Location: ??????
(55.6361°N, 38.0803°E)
Time: 02:30:47
(UTC+00:00)

Cosmos 839 Rocket - Pass Details

Date: 30 March 2020
Orbit: 962 x 2090 km, 65.9° (Epoch: 30 May)

Event Time Altitude Azimuth Distance (km) Brightness Sun altitude
Exits shadow 00:56:10 27° 244° (WSW) 1,824 4.8 -17.4°
Maximum altitude 00:59:49 70° 322° (NW) 1,114 4.2 -16.9°
Drops below altitude 10° 01:07:04 10° 47° (NE) 3,157 8.0 -16.1°
Sets 01:10:07 0° 49° (NE) 4,275 9.1 -15.7°
